Terminal Aerodrome Forecast
Issued by NWS

Home | Current Version | Previous Version | Text Only | Print | Product List | Glossary On
Versions: 1 2 3 4 5 6 7 8 9 10 11 12 13 14
000
FTUS45 KTFX 300700 AAA
TAFHLN
TAF AMD
KHLN 300722Z 3007/0106 26014G21KT P6SM SCT040 BKN080
      TEMPO 3009/3012 -SHRA BKN040
     FM301300 27011KT P6SM VCSH SCT040 BKN080
     FM302000 30009KT P6SM SCT050 BKN120=

USA.gov is the U.S. government's official web portal to all federal, state and local government web resources and services.